ITY336 LIRF-LFML

Flight info

Callsign ITY336
Flight time 1h 27m
Altitude 38000
Route PODOX DCT BEGUD DCT MIRSA DCT OMARD DCT STP A3 RUBIT G7 LANKO
Aircraft A320/M-SDE3FGHIRWY/LB1

Departure

Time 2026-05-04 14:32
Airport Rome–Fiumicino Leonardo da Vinci International Airport (LIRF)

Arrival

Time 2026-05-04 15:59
Airport Marseille Provence Airport (LFML)
Time Latitude Longitude Altitude Speed Heading
2026-05-04 13:51 41.79764 12.25664 14 ft 0 kts 295°
2026-05-04 14:19 41.79757 12.25684 15 ft 4 kts 295°
2026-05-04 14:20 41.79747 12.25709 15 ft 4 kts 317°
2026-05-04 14:20 41.79726 12.25719 14 ft 4 kts 16°
2026-05-04 14:20 41.79716 12.25714 15 ft 0 kts 25°
2026-05-04 14:24 41.79717 12.25715 14 ft 1 kts 25°
2026-05-04 14:24 41.79738 12.25728 15 ft 3 kts 25°
2026-05-04 14:24 41.79762 12.25743 14 ft 4 kts 25°
2026-05-04 14:25 41.79790 12.25761 15 ft 5 kts 25°
2026-05-04 14:25 41.79861 12.25814 14 ft 8 kts 34°
2026-05-04 14:25 41.79905 12.25843 14 ft 6 kts 26°
2026-05-04 14:26 41.79940 12.25865 15 ft 6 kts 24°
2026-05-04 14:26 41.80010 12.25908 14 ft 12 kts 24°
2026-05-04 14:26 41.80082 12.25952 15 ft 11 kts 24°
2026-05-04 14:26 41.80147 12.25992 14 ft 10 kts 25°
2026-05-04 14:27 41.80209 12.26031 16 ft 10 kts 25°
2026-05-04 14:27 41.80272 12.26070 15 ft 10 kts 25°
2026-05-04 14:27 41.80339 12.26111 14 ft 10 kts 25°
2026-05-04 14:27 41.80403 12.26150 15 ft 11 kts 25°
2026-05-04 14:28 41.80472 12.26176 16 ft 10 kts
2026-05-04 14:28 41.80523 12.26222 16 ft 12 kts 65°
2026-05-04 14:28 41.80555 12.26332 16 ft 15 kts 70°
2026-05-04 14:28 41.80591 12.26464 17 ft 15 kts 70°
2026-05-04 14:29 41.80668 12.26747 16 ft 19 kts 70°
2026-05-04 14:29 41.80754 12.27030 13 ft 10 kts 45°
2026-05-04 14:30 41.80814 12.27038 13 ft 9 kts 343°
2026-05-04 14:30 41.80868 12.27014 13 ft 8 kts 341°
2026-05-04 14:30 41.80957 12.26931 12 ft 7 kts 267°
2026-05-04 14:31 41.80947 12.26886 14 ft 0 kts 251°
2026-05-04 14:31 41.80863 12.26584 16 ft 71 kts 250°
2026-05-04 14:32 41.80248 12.24353 151 ft 164 kts 248°
2026-05-04 14:32 41.79865 12.22927 883 ft 162 kts 246°
2026-05-04 14:32 41.79456 12.21515 1574 ft 162 kts 246°
2026-05-04 14:32 41.79282 12.20005 2201 ft 167 kts 265°
2026-05-04 14:33 41.79249 12.18448 2860 ft 168 kts 264°
2026-05-04 14:33 41.79211 12.16879 3396 ft 173 kts 263°
2026-05-04 14:33 41.79161 12.15170 3687 ft 195 kts 264°
2026-05-04 14:33 41.79103 12.13242 3951 ft 220 kts 264°
2026-05-04 14:34 41.79041 12.11087 4382 ft 244 kts 264°
2026-05-04 14:34 41.78984 12.08703 4895 ft 265 kts 266°
2026-05-04 14:34 41.78971 12.06199 5707 ft 271 kts 266°
2026-05-04 14:34 41.78979 12.03650 6616 ft 274 kts 267°
2026-05-04 14:35 41.78992 12.01092 7506 ft 276 kts 268°
2026-05-04 14:35 41.79002 11.98518 8402 ft 277 kts 268°
2026-05-04 14:35 41.79015 11.95937 9310 ft 278 kts 271°
2026-05-04 14:35 41.79462 11.93399 10158 ft 286 kts 293°
2026-05-04 14:36 41.80506 11.91054 10636 ft 304 kts 300°
2026-05-04 14:36 41.81692 11.88588 10944 ft 324 kts 301°
2026-05-04 14:36 41.82948 11.86029 11581 ft 331 kts 301°
2026-05-04 14:36 41.84221 11.83447 12352 ft 333 kts 301°
2026-05-04 14:37 41.85500 11.80850 13139 ft 335 kts 301°
2026-05-04 14:37 41.86785 11.78227 13912 ft 337 kts 301°
2026-05-04 14:37 41.88073 11.75585 14591 ft 340 kts 301°
2026-05-04 14:37 41.89371 11.72915 15238 ft 343 kts 301°
2026-05-04 14:38 41.90676 11.70225 15876 ft 346 kts 301°
2026-05-04 14:38 41.91547 11.68428 16302 ft 348 kts 301°
2026-05-04 14:38 41.92871 11.65691 16927 ft 351 kts 300°
2026-05-04 14:38 41.94208 11.62930 17547 ft 355 kts 300°
2026-05-04 14:39 41.95561 11.60138 18176 ft 358 kts 300°
2026-05-04 14:39 41.96923 11.57325 18751 ft 361 kts 300°
2026-05-04 14:39 41.98295 11.54485 19294 ft 364 kts 300°
2026-05-04 14:40 42.01067 11.48724 20380 ft 370 kts 301°
2026-05-04 14:40 42.02468 11.45803 20927 ft 373 kts 301°
2026-05-04 14:40 42.03879 11.42862 21461 ft 376 kts 301°
2026-05-04 14:40 42.05303 11.39890 22002 ft 379 kts 301°
2026-05-04 14:41 42.06737 11.36894 22538 ft 383 kts 301°
2026-05-04 14:41 42.08183 11.33874 23065 ft 386 kts 301°
2026-05-04 14:41 42.11111 11.27751 24002 ft 392 kts 301°
2026-05-04 14:42 42.14070 11.21562 24939 ft 393 kts 301°
2026-05-04 14:42 42.15550 11.18464 25413 ft 393 kts 301°
2026-05-04 14:42 42.17028 11.15364 25873 ft 393 kts 300°
2026-05-04 14:43 42.18507 11.12255 26319 ft 394 kts 300°
2026-05-04 14:43 42.19981 11.09146 26767 ft 394 kts 300°
2026-05-04 14:43 42.21437 11.06069 27197 ft 394 kts 300°
2026-05-04 14:43 42.22914 11.02953 27620 ft 395 kts 300°
2026-05-04 14:44 42.24392 10.99834 28042 ft 395 kts 300°
2026-05-04 14:44 42.25873 10.96705 28463 ft 395 kts 299°
2026-05-04 14:44 42.27353 10.93576 28866 ft 396 kts 299°
2026-05-04 14:44 42.28835 10.90435 29257 ft 396 kts 299°
2026-05-04 14:45 42.30317 10.87294 29639 ft 397 kts 299°
2026-05-04 14:45 42.31799 10.84147 30004 ft 398 kts 299°
2026-05-04 14:45 42.33287 10.80989 30326 ft 398 kts 299°
2026-05-04 14:45 42.34775 10.77830 30610 ft 399 kts 298°
2026-05-04 14:46 42.36268 10.74658 30881 ft 400 kts 298°
2026-05-04 14:46 42.37759 10.71482 31139 ft 401 kts 298°
2026-05-04 14:46 42.39251 10.68298 31392 ft 401 kts 298°
2026-05-04 14:46 42.40744 10.65112 31696 ft 400 kts 298°
2026-05-04 14:47 42.42230 10.61934 32060 ft 398 kts 298°
2026-05-04 14:47 42.43705 10.58776 32420 ft 396 kts 298°
2026-05-04 14:47 42.45175 10.55628 32779 ft 394 kts 298°
2026-05-04 14:47 42.46635 10.52498 33150 ft 392 kts 297°
2026-05-04 14:48 42.48088 10.49377 33505 ft 390 kts 297°
2026-05-04 14:48 42.49531 10.46273 33873 ft 388 kts 297°
2026-05-04 14:48 42.50966 10.43184 34214 ft 387 kts 297°
2026-05-04 14:48 42.52397 10.40099 34487 ft 386 kts 297°
2026-05-04 14:49 42.53803 10.37061 34734 ft 386 kts 297°
2026-05-04 14:49 42.55230 10.33982 34975 ft 386 kts 297°
2026-05-04 14:49 42.56662 10.30894 35179 ft 387 kts 297°
2026-05-04 14:49 42.58093 10.27802 35403 ft 387 kts 297°
2026-05-04 14:50 42.59525 10.24699 35586 ft 388 kts 297°
2026-05-04 14:50 42.60955 10.21600 35797 ft 388 kts 297°
2026-05-04 14:50 42.62387 10.18501 35997 ft 388 kts 297°
2026-05-04 14:50 42.63820 10.15392 36080 ft 387 kts 297°
2026-05-04 14:51 42.66660 10.09212 36084 ft 385 kts 297°
2026-05-04 14:51 42.69487 10.03050 36084 ft 384 kts 297°
2026-05-04 14:52 42.72308 9.96878 36073 ft 384 kts 297°
2026-05-04 14:52 42.75132 9.90705 36073 ft 384 kts 297°
2026-05-04 14:53 42.77957 9.84535 36077 ft 384 kts 297°
2026-05-04 14:53 42.80772 9.78344 36079 ft 384 kts 296°
2026-05-04 14:54 42.82757 9.71725 36080 ft 375 kts 279°
2026-05-04 14:54 42.83729 9.64745 36067 ft 375 kts 278°
2026-05-04 14:55 42.84687 9.57801 36065 ft 376 kts 278°
2026-05-04 14:55 42.85657 9.50805 36055 ft 376 kts 278°
2026-05-04 14:56 42.86624 9.43810 36070 ft 375 kts 277°
2026-05-04 14:56 42.87583 9.36826 36045 ft 376 kts 277°
2026-05-04 14:57 42.88535 9.29813 36047 ft 376 kts 277°
2026-05-04 14:57 42.89488 9.22810 36037 ft 375 kts 277°
2026-05-04 14:58 42.90439 9.15810 36034 ft 375 kts 277°
2026-05-04 14:58 42.91383 9.08805 36042 ft 376 kts 277°
2026-05-04 14:59 42.92320 9.01785 36032 ft 376 kts 277°
2026-05-04 15:00 42.93728 8.91233 36027 ft 377 kts 277°
2026-05-04 15:00 42.94659 8.84194 36028 ft 377 kts 277°
2026-05-04 15:01 42.96048 8.73661 36029 ft 378 kts 277°
2026-05-04 15:01 42.96974 8.66607 36037 ft 378 kts 276°
2026-05-04 15:02 42.97894 8.59542 36032 ft 378 kts 276°
2026-05-04 15:02 42.98807 8.52472 36029 ft 378 kts 276°
2026-05-04 15:03 42.99720 8.45399 36029 ft 378 kts 276°
2026-05-04 15:03 43.00630 8.38325 36029 ft 378 kts 276°
2026-05-04 15:04 43.01533 8.31252 36038 ft 378 kts 275°
2026-05-04 15:04 43.02434 8.24167 36041 ft 379 kts 275°
2026-05-04 15:05 43.03331 8.17072 36033 ft 379 kts 275°
2026-05-04 15:05 43.04219 8.09970 36044 ft 378 kts 275°
2026-05-04 15:06 43.04658 8.06454 35827 ft 373 kts 275°
2026-05-04 15:06 43.05093 8.02985 35372 ft 368 kts 275°
2026-05-04 15:06 43.05522 7.99553 34910 ft 364 kts 275°
2026-05-04 15:07 43.06359 7.92768 33705 ft 364 kts 274°
2026-05-04 15:07 43.06775 7.89382 33402 ft 369 kts 274°
2026-05-04 15:07 43.07201 7.85909 33130 ft 372 kts 274°
2026-05-04 15:07 43.07628 7.82424 32870 ft 372 kts 274°
2026-05-04 15:08 43.08057 7.78935 32607 ft 371 kts 275°
2026-05-04 15:08 43.08483 7.75457 32351 ft 371 kts 275°
2026-05-04 15:08 43.08909 7.71984 32089 ft 370 kts 275°
2026-05-04 15:08 43.09333 7.68513 31840 ft 370 kts 275°
2026-05-04 15:09 43.09754 7.65043 31584 ft 369 kts 275°
2026-05-04 15:09 43.10173 7.61582 31334 ft 369 kts 275°
2026-05-04 15:09 43.10591 7.58118 31101 ft 369 kts 275°
2026-05-04 15:10 43.11427 7.51191 30606 ft 369 kts 275°
2026-05-04 15:10 43.11837 7.47730 30362 ft 369 kts 275°
2026-05-04 15:10 43.12659 7.40810 29845 ft 368 kts 275°
2026-05-04 15:11 43.13069 7.37360 29565 ft 367 kts 275°
2026-05-04 15:11 43.13477 7.33914 29287 ft 366 kts 275°
2026-05-04 15:11 43.13875 7.30526 29014 ft 365 kts 275°
2026-05-04 15:11 43.14277 7.27099 28744 ft 364 kts 275°
2026-05-04 15:12 43.14680 7.23674 28473 ft 364 kts 275°
2026-05-04 15:12 43.15082 7.20261 28205 ft 363 kts 275°
2026-05-04 15:12 43.15483 7.16861 27907 ft 360 kts 275°
2026-05-04 15:12 43.15877 7.13496 27476 ft 356 kts 275°
2026-05-04 15:13 43.16264 7.10169 27028 ft 352 kts 275°
2026-05-04 15:13 43.16644 7.06866 26594 ft 349 kts 275°
2026-05-04 15:13 43.17021 7.03600 26170 ft 346 kts 276°
2026-05-04 15:13 43.17396 7.00355 25742 ft 343 kts 276°
2026-05-04 15:14 43.17766 6.97137 25306 ft 341 kts 276°
2026-05-04 15:14 43.18131 6.93944 24875 ft 339 kts 276°
2026-05-04 15:14 43.18495 6.90760 24434 ft 337 kts 276°
2026-05-04 15:14 43.18858 6.87597 23994 ft 336 kts 276°
2026-05-04 15:15 43.19220 6.84436 23531 ft 336 kts 276°
2026-05-04 15:15 43.19579 6.81276 23037 ft 335 kts 276°
2026-05-04 15:15 43.19930 6.78183 22594 ft 332 kts 276°
2026-05-04 15:16 43.20632 6.71962 21705 ft 328 kts 276°
2026-05-04 15:16 43.20978 6.68877 21273 ft 326 kts 275°
2026-05-04 15:16 43.21659 6.62753 20412 ft 324 kts 275°
2026-05-04 15:17 43.21949 6.59698 19983 ft 322 kts 270°
2026-05-04 15:17 43.22043 6.53587 19148 ft 320 kts 268°
2026-05-04 15:17 43.22088 6.50542 18733 ft 320 kts 268°
2026-05-04 15:18 43.22132 6.47492 18315 ft 320 kts 268°
2026-05-04 15:18 43.22173 6.44447 17866 ft 319 kts 268°
2026-05-04 15:18 43.22212 6.41419 17456 ft 317 kts 268°
2026-05-04 15:19 43.22298 6.35401 16563 ft 315 kts 268°
2026-05-04 15:19 43.22346 6.32406 16167 ft 314 kts 268°
2026-05-04 15:19 43.22434 6.26452 15404 ft 311 kts 268°
2026-05-04 15:20 43.22474 6.23497 15028 ft 310 kts 268°
2026-05-04 15:20 43.22512 6.20548 14650 ft 309 kts 268°
2026-05-04 15:20 43.22550 6.17604 14271 ft 308 kts 268°
2026-05-04 15:20 43.22588 6.14663 13890 ft 308 kts 268°
2026-05-04 15:21 43.22626 6.11720 13450 ft 309 kts 268°
2026-05-04 15:21 43.22657 6.08787 13066 ft 307 kts 267°
2026-05-04 15:21 43.22708 6.03024 12364 ft 302 kts 267°
2026-05-04 15:22 43.22842 6.00150 12003 ft 303 kts 274°
2026-05-04 15:22 43.23123 5.97299 11576 ft 301 kts 274°
2026-05-04 15:22 43.23683 5.91619 10769 ft 299 kts 274°
2026-05-04 15:23 43.23961 5.88803 10411 ft 297 kts 275°
2026-05-04 15:23 43.24237 5.85996 10015 ft 297 kts 274°
2026-05-04 15:23 43.24508 5.83243 9847 ft 287 kts 274°
2026-05-04 15:23 43.24776 5.80550 9547 ft 283 kts 274°
2026-05-04 15:24 43.25298 5.75221 8689 ft 282 kts 273°
2026-05-04 15:24 43.25809 5.69888 7829 ft 282 kts 275°
2026-05-04 15:25 43.26064 5.67215 7386 ft 284 kts 274°
2026-05-04 15:25 43.26319 5.64530 7114 ft 283 kts 273°
2026-05-04 15:25 43.26570 5.61857 6994 ft 282 kts 271°
2026-05-04 15:26 43.27106 5.56520 6999 ft 283 kts 276°
2026-05-04 15:26 43.27420 5.53839 7000 ft 285 kts 274°
2026-05-04 15:26 43.28063 5.48472 7002 ft 285 kts 274°
2026-05-04 15:27 43.28386 5.45792 6996 ft 282 kts 275°
2026-05-04 15:27 43.28992 5.40735 6999 ft 264 kts 274°
2026-05-04 15:28 43.29556 5.35781 6997 ft 262 kts 275°
2026-05-04 15:28 43.29836 5.33302 6999 ft 263 kts 275°
2026-05-04 15:28 43.30393 5.28424 6998 ft 256 kts 273°
2026-05-04 15:29 43.30667 5.26009 6998 ft 256 kts 274°
2026-05-04 15:30 43.31766 5.16338 7000 ft 256 kts 273°
2026-05-04 15:30 43.32582 5.09074 6998 ft 257 kts 275°
2026-05-04 15:31 43.33704 5.04420 6996 ft 268 kts 304°
2026-05-04 15:31 43.35137 5.02747 6997 ft 275 kts 330°
2026-05-04 15:32 43.40748 5.02070 6500 ft 263 kts 356°
2026-05-04 15:32 43.44124 5.00817 6051 ft 250 kts 329°
2026-05-04 15:33 43.46817 4.97820 5661 ft 251 kts 312°
2026-05-04 15:34 43.50147 4.93382 5199 ft 251 kts 312°
2026-05-04 15:34 43.51407 4.91709 5020 ft 251 kts 313°
2026-05-04 15:34 43.53901 4.88389 4676 ft 249 kts 313°
2026-05-04 15:35 43.56759 4.85843 4307 ft 248 kts 353°
2026-05-04 15:35 43.58428 4.85959 4136 ft 241 kts 22°
2026-05-04 15:35 43.59865 4.87019 4041 ft 230 kts 48°
2026-05-04 15:36 43.61506 4.90301 4036 ft 198 kts 68°
2026-05-04 15:36 43.61999 4.92010 4004 ft 187 kts 86°
2026-05-04 15:36 43.62056 4.93698 3997 ft 167 kts 104°
2026-05-04 15:37 43.61759 4.95193 4004 ft 159 kts 120°
2026-05-04 15:37 43.61172 4.96453 4000 ft 155 kts 133°
2026-05-04 15:37 43.60427 4.97526 4006 ft 155 kts 135°
2026-05-04 15:37 43.59682 4.98598 4008 ft 155 kts 135°
2026-05-04 15:38 43.58933 4.99673 3950 ft 156 kts 135°
2026-05-04 15:38 43.58185 5.00748 3801 ft 155 kts 134°
2026-05-04 15:38 43.57442 5.01813 3615 ft 153 kts 134°
2026-05-04 15:38 43.56708 5.02865 3428 ft 151 kts 133°
2026-05-04 15:39 43.55988 5.03898 3234 ft 148 kts 132°
2026-05-04 15:39 43.55278 5.04915 3036 ft 147 kts 133°
2026-05-04 15:39 43.53868 5.06936 2639 ft 145 kts 133°
2026-05-04 15:40 43.53168 5.07938 2447 ft 145 kts 133°
2026-05-04 15:40 43.52469 5.08937 2248 ft 145 kts 133°
2026-05-04 15:40 43.51773 5.09933 2054 ft 142 kts 133°
2026-05-04 15:40 43.51107 5.10886 1869 ft 135 kts 133°
2026-05-04 15:41 43.50460 5.11810 1712 ft 134 kts 131°
2026-05-04 15:41 43.49819 5.12727 1516 ft 132 kts 131°
2026-05-04 15:41 43.49183 5.13635 1338 ft 131 kts 131°
2026-05-04 15:41 43.48551 5.14541 1146 ft 130 kts 133°
2026-05-04 15:42 43.47918 5.15440 979 ft 133 kts 134°
2026-05-04 15:42 43.47279 5.16350 781 ft 133 kts 133°
2026-05-04 15:42 43.46642 5.17258 579 ft 132 kts 133°
2026-05-04 15:42 43.46014 5.18153 428 ft 128 kts 132°
2026-05-04 15:43 43.45379 5.19064 253 ft 134 kts 132°
2026-05-04 15:43 43.44736 5.19984 70 ft 131 kts 132°
2026-05-04 15:43 43.44129 5.20850 36 ft 115 kts 132°
2026-05-04 15:43 43.43484 5.21768 327 ft 152 kts 131°
2026-05-04 15:44 43.42751 5.22840 1341 ft 153 kts 130°
2026-05-04 15:44 43.42013 5.23944 2190 ft 165 kts 132°
2026-05-04 15:44 43.41207 5.25207 2676 ft 183 kts 131°
2026-05-04 15:44 43.40239 5.26379 3382 ft 192 kts 153°
2026-05-04 15:45 43.38881 5.26624 3891 ft 207 kts 186°
2026-05-04 15:45 43.37558 5.25793 3998 ft 214 kts 209°
2026-05-04 15:45 43.36368 5.24552 3998 ft 215 kts 212°
2026-05-04 15:45 43.35207 5.23251 4012 ft 216 kts 213°
2026-05-04 15:46 43.34050 5.21943 4011 ft 215 kts 213°
2026-05-04 15:46 43.33080 5.20356 4006 ft 224 kts 238°
2026-05-04 15:46 43.32757 5.18226 4005 ft 237 kts 270°
2026-05-04 15:46 43.33323 5.16072 4011 ft 247 kts 306°
2026-05-04 15:47 43.34514 5.14369 4016 ft 248 kts 315°
2026-05-04 15:47 43.35729 5.12735 4006 ft 247 kts 315°
2026-05-04 15:47 43.36970 5.11065 4008 ft 247 kts 315°
2026-05-04 15:47 43.38180 5.09439 4009 ft 247 kts 314°
2026-05-04 15:48 43.39404 5.07788 4001 ft 246 kts 314°
2026-05-04 15:48 43.40624 5.06136 4010 ft 247 kts 314°
2026-05-04 15:48 43.43068 5.02816 4008 ft 247 kts 314°
2026-05-04 15:49 43.44292 5.01159 4010 ft 247 kts 315°
2026-05-04 15:49 43.45526 4.99511 4009 ft 247 kts 315°
2026-05-04 15:49 43.46758 4.97875 4008 ft 246 kts 315°
2026-05-04 15:49 43.47993 4.96235 4011 ft 247 kts 315°
2026-05-04 15:50 43.49227 4.94594 4022 ft 247 kts 314°
2026-05-04 15:50 43.50473 4.92940 4011 ft 250 kts 314°
2026-05-04 15:50 43.51713 4.91295 4003 ft 240 kts 314°
2026-05-04 15:50 43.52890 4.89768 4006 ft 225 kts 320°
2026-05-04 15:51 43.54273 4.88899 4026 ft 217 kts 357°
2026-05-04 15:51 43.55709 4.89198 4016 ft 207 kts 27°
2026-05-04 15:51 43.57023 4.89987 4003 ft 205 kts 36°
2026-05-04 15:51 43.58126 4.91156 4002 ft 197 kts 56°
2026-05-04 15:52 43.58845 4.92692 4011 ft 187 kts 74°
2026-05-04 15:52 43.59316 4.94324 4008 ft 183 kts 82°
2026-05-04 15:52 43.59528 4.96012 4001 ft 177 kts 91°
2026-05-04 15:52 43.59551 4.97680 4002 ft 171 kts 104°
2026-05-04 15:53 43.59163 4.99195 3990 ft 167 kts 124°
2026-05-04 15:53 43.58424 5.00411 3859 ft 165 kts 134°
2026-05-04 15:53 43.57633 5.01542 3667 ft 161 kts 134°
2026-05-04 15:53 43.56872 5.02632 3469 ft 155 kts 135°
2026-05-04 15:54 43.56138 5.03684 3267 ft 150 kts 134°
2026-05-04 15:54 43.55419 5.04714 3075 ft 148 kts 134°
2026-05-04 15:54 43.54711 5.05729 2878 ft 146 kts 133°
2026-05-04 15:54 43.54010 5.06732 2681 ft 145 kts 133°
2026-05-04 15:55 43.53314 5.07728 2488 ft 144 kts 131°
2026-05-04 15:55 43.52618 5.08724 2296 ft 144 kts 132°
2026-05-04 15:55 43.51941 5.09693 2100 ft 137 kts 132°
2026-05-04 15:55 43.51289 5.10625 1917 ft 134 kts 132°
2026-05-04 15:56 43.50650 5.11538 1764 ft 132 kts 131°
2026-05-04 15:56 43.50017 5.12444 1580 ft 131 kts 131°
2026-05-04 15:56 43.49387 5.13344 1400 ft 130 kts 131°
2026-05-04 15:56 43.48761 5.14237 1219 ft 129 kts 133°
2026-05-04 15:57 43.48136 5.15130 1045 ft 130 kts 133°
2026-05-04 15:57 43.47499 5.16042 850 ft 133 kts 132°
2026-05-04 15:57 43.46862 5.16950 663 ft 130 kts 133°
2026-05-04 15:57 43.46237 5.17842 482 ft 132 kts 133°
2026-05-04 15:58 43.45604 5.18747 309 ft 135 kts 132°
2026-05-04 15:58 43.44958 5.19672 115 ft 132 kts 133°
2026-05-04 15:58 43.44337 5.20547 29 ft 118 kts 133°
2026-05-04 15:58 43.43886 5.21200 39 ft 70 kts 134°
2026-05-04 15:59 43.43599 5.21604 46 ft 51 kts 134°
2026-05-04 15:59 43.43397 5.21891 51 ft 29 kts 134°
2026-05-04 15:59 43.43338 5.22032 51 ft 14 kts 103°
2026-05-04 15:59 43.43332 5.22157 55 ft 13 kts 90°
2026-05-04 16:00 43.43353 5.22250 53 ft 8 kts 53°
2026-05-04 16:00 43.43399 5.22283 54 ft 8 kts
2026-05-04 16:00 43.43449 5.22259 52 ft 8 kts 332°
2026-05-04 16:00 43.43501 5.22221 52 ft 9 kts 330°
2026-05-04 16:01 43.43557 5.22176 50 ft 10 kts 328°
2026-05-04 16:01 43.43617 5.22127 49 ft 10 kts 330°
2026-05-04 16:01 43.43674 5.22110 48 ft 8 kts 19°
2026-05-04 16:01 43.43708 5.22163 48 ft 7 kts 50°
2026-05-04 16:02 43.43740 5.22211 48 ft 6 kts 55°
2026-05-04 16:02 43.43760 5.22255 48 ft 5 kts 53°
2026-05-04 16:02 43.43793 5.22308 48 ft 3 kts 47°
2026-05-04 16:03 43.43808 5.22315 47 ft 2 kts 18°
2026-05-04 16:03 43.43821 5.22325 47 ft 1 kts 46°
2026-05-04 16:03 43.43822 5.22330 47 ft 1 kts 64°
2026-05-04 16:03 43.43822 5.22331 47 ft 0 kts 67°